This is the latest recevied weather packets stored in our database for station/object CT1EDG-13. If no packets are shown the sender has not sent any weather packets the latest 10 day(s).
| Time | Temp. | Humidity | Pressure | Rain* | Wind** | Luminosity | Snow |
|---|---|---|---|---|---|---|---|
| 1787830328 | 22.22° C | 88% | 1005 hPa | 0 mm | - | - | - |
| 1787830327 | 22.22° C | 88% | 1005 hPa | 0 mm | - | - | - |
| 1787829727 | 22.22° C | 80% | 1005 hPa | 0 mm | - | - | - |
| 1787829726 | 22.22° C | 80% | 1005 hPa | 0 mm | - | - | - |
| 1787829128 | 21.11° C | 83% | 1005 hPa | 0 mm | - | - | - |
| 1787829126 | 21.11° C | 83% | 1005 hPa | 0 mm | - | - | - |
| 1787828527 | 21.11° C | 87% | 1004.8 hPa | 0 mm | - | - | - |
| 1787828526 | 21.11° C | 87% | 1004.8 hPa | 0 mm | - | - | - |
| 1787827929 | 21.67° C | 91% | 1004.6 hPa | 0 mm | - | - | - |
| 1787827929 | 21.67° C | 91% | 1004.6 hPa | 0 mm | - | - | - |
| 1787827327 | 21.11° C | 88% | 1004.6 hPa | 0 mm | - | - | - |
| 1787827326 | 21.11° C | 88% | 1004.6 hPa | 0 mm | - | - | - |
| 1787826727 | 21.11° C | 88% | 1004.5 hPa | 0 mm | - | - | - |
| 1787826726 | 21.11° C | 88% | 1004.5 hPa | 0 mm | - | - | - |
| 1787826127 | 20.56° C | 88% | 1004.3 hPa | 0 mm | - | - | - |
| 1787826126 | 20.56° C | 88% | 1004.3 hPa | 0 mm | - | - | - |
| 1787825527 | 21.11° C | 89% | 1004.3 hPa | 0 mm | - | - | - |
| 1787825526 | 21.11° C | 89% | 1004.3 hPa | 0 mm | - | - | - |
| 1787824928 | 21.11° C | 88% | 1004.2 hPa | 0 mm | - | - | - |
| 1787824926 | 21.11° C | 88% | 1004.2 hPa | 0 mm | - | - | - |
| 1787824327 | 20.56° C | 94% | 1004 hPa | 0 mm | - | - | - |
| 1787824326 | 20.56° C | 94% | 1004 hPa | 0 mm | - | - | - |
| 1787823727 | 20° C | 93% | 1003.9 hPa | 0 mm | - | - | - |
| 1787823726 | 20° C | 93% | 1003.9 hPa | 0 mm | - | - | - |
| 1787823128 | 20° C | 99% | 1003.8 hPa | 0 mm | - | - | - |
* Rain latest hour (hover to see other rain measurements)
** Current wind speed in m/s (hover to see current wind gust speed)